Tesla PE Ratio 2010-2022 | TSLA

Current and historical p/e ratio for Tesla (TSLA) from 2010 to 2022. The price to earnings ratio is calculated by taking the latest closing price and dividing it by the most recent earnings per share (EPS) number. The PE ratio is a simple way to assess whether a stock is over or under valued and is the most widely used valuation measure. Tesla PE ratio as of November 30, 2022 is 60.15.

Please refer to the Stock Price Adjustment Guide for more information on our historical prices.

Tesla PE Ratio Historical Data
Date Stock Price TTM Net EPS PE Ratio
2022-12-01 194.70 60.16
2022-09-30 265.25 $3.24 81.95
2022-06-30 224.47 $2.77 81.14
2022-03-31 359.20 $2.46 146.22
2021-12-31 352.26 $1.63 215.67
2021-09-30 258.49 $1.03 250.96
2021-06-30 226.57 $0.64 354.01
2021-03-31 222.64 $0.33 668.00
2020-12-31 235.22 $0.21 1127.63
2020-09-30 143.00 $0.17 861.98
2020-06-30 71.99 $0.13 562.84
2020-03-31 34.93 $-0.06 0.00
2019-12-31 27.89 $-0.34 0.00
2019-09-30 16.06 $-0.32 0.00
2019-06-30 14.90 $-0.26 0.00
2019-03-31 18.66 $-0.39 0.00
2018-12-31 22.19 $-0.39 0.00
2018-09-30 17.65 $-0.71 0.00
2018-06-30 22.86 $-1.07 0.00
2018-03-31 17.74 $-0.93 0.00
2017-12-31 20.76 $-0.79 0.00
2017-09-30 22.74 $-0.57 0.00
2017-06-30 24.11 $-0.31 0.00
2017-03-31 18.55 $-0.32 0.00
2016-12-31 14.25 $-0.32 0.00
2016-09-30 13.60 $-0.43 0.00
2016-06-30 14.15 $-0.56 0.00
2016-03-31 15.32 $-0.52 0.00
2015-12-31 16.00 $-0.46 0.00
2015-09-30 16.56 $-0.35 0.00
2015-06-30 17.88 $-0.28 0.00
2015-03-31 12.58 $-0.21 0.00
2014-12-31 14.83 $-0.16 0.00
2014-09-30 16.18 $-0.11 0.00
2014-06-30 16.00 $-0.09 0.00
2014-03-31 13.90 $-0.07 0.00
2013-12-31 10.03 $-0.04 0.00
2013-09-30 12.89 $-0.09 0.00
2013-06-30 7.16 $-0.13 0.00
2013-03-31 2.53 $-0.18 0.00
2012-12-31 2.26 $-0.25 0.00
2012-09-30 1.95 $-0.25 0.00
2012-06-30 2.09 $-0.22 0.00
2012-03-31 2.48 $-0.19 0.00
2011-12-31 1.90 $-0.17 0.00
2011-09-30 1.63 $-0.15 0.00
2011-06-30 1.94 $-0.14 0.00
2011-03-31 1.85 $-0.43 0.00
Sector Industry Market Cap Revenue
Auto/Tires/Trucks Auto Manufacturers - Domestic $614.814B $53.823B
Tesla is the market leader in battery-powered electric car sales in the United States, with roughly 70% market share. The company's flagship Model 3 is the best-selling EV model in the United States. Tesla, which has managed to garner the reputation of a gold standard over the years, is now a far bigger entity that what it started off since its IPO in 2010, with its market cap crossing $1 trillion for the first time in October 2021.? The EV king's market capitalization is more than the combined value of legacy automakers including Toyota, Volkswagen, Daimler, General Motors and Ford.Over the years, Tesla has shifted from developing niche products for affluent buyers to making more affordable EVs for the masses. The firm's three-pronged business model approach of direct sales, servicing, and charging its EVs sets it apart from other carmakers. Tesla, which is touted as the clean energy revolutionary automaker, is much more than just a car manufacturer.
Stock Name Country Market Cap PE Ratio
General Motors (GM) United States $57.623B 5.94
Ford Motor (F) United States $55.885B 8.58
Harley-Davidson (HOG) United States $6.890B 9.74
Polaris (PII) United States $6.611B 12.51
IAA (IAA) United States $4.999B 15.97
Fisker (FSR) United States $2.414B 0.00
Lion Electric (LEV) Canada $0.541B 0.00
Volta (VLTA) United States $0.083B 0.00
Bird Global (BRDS) United States $0.066B 0.00
Lightning EMotors (ZEV) United States $0.052B 0.00